Regional Weather Roundup
Issued by NWS Portland, ME

Current Version | Previous Version | Text Only | Print | Product List | Glossary Off
Versions: 1 2 3 4 5 6 7 8 9 10 11 12 13 14 15 16 17 18 19 20 21 22 23 24 25 26 27 28 29 30 31 32 33 34 35 36 37 38 39 40 41 42 43 44 45 46 47 48 49 50
000 ASUS41 KGYX 221205 RWRGYX WEATHER ROUNDUP FOR MAINE AND NEW HAMPSHIRE NATIONAL WEATHER SERVICE GRAY ME 800 AM EDT FRI SEP 22 2017 MEZ002-005-006-010-012-015-018-020-021-024-026-027-029-221300- MAINE CITY SKY/WX TMP DP RH WIND PRES REMARKS PORTLAND PTSUNNY 56 46 69 N12 30.11S 6HR MIN TEMP: 56; 6HR MAX TEMP: 60; SANFORD CLOUDY 59 48 67 N14G22 30.10R BAR HARBOR MOSUNNY 54 48 80 N10 30.15R WISCASSET CLOUDY 57 48 72 VRB5 30.13S 6HR MIN TEMP: 54; 6HR MAX TEMP: 60; ROCKLAND CLOUDY 56 50 80 N12G21 30.11S FRYEBURG CLOUDY 58 48 69 VRB6 30.17R 6HR MIN TEMP: 49; 6HR MAX TEMP: 58; LEWISTONAUBURN CLOUDY 55 46 71 N16 30.15R AUGUSTA SUNNY 54 45 71 N12 30.17R 6HR MIN TEMP: 51; 6HR MAX TEMP: 55; WATERVILLE SUNNY 53 46 77 N9 30.15R BANGOR CLOUDY 53 46 77 N12 30.18S 6HR MIN TEMP: 49; 6HR MAX TEMP: 53; GREENVILLE N/A 53 49 86 NW3 30.19R 6HR MIN TEMP: 46; 6HR MAX TEMP: 54; MILLINOCKET CLOUDY 50 46 86 CALM 30.23R 6HR MIN TEMP: 41; 6HR MAX TEMP: 50; HOULTON CLOUDY 45 43 93 CALM 30.22R 6HR MIN TEMP: 34; 6HR MAX TEMP: 45; PRESQUE ISLE PTSUNNY 41 41 100 S3 30.25R FOG FRENCHVILLE SUNNY 49 44 83 SE3 30.21S 6HR MIN TEMP: 46; 6HR MAX TEMP: 50; CARIBOU SUNNY 47 43 86 CALM 30.23R 6HR MIN TEMP: 40; 6HR MAX TEMP: 48; $$ NHZ002-005-008-009-011-012-014-221300- NEW HAMPSHIRE CITY SKY/WX TMP DP RH WIND PRES REMARKS PORTSMOUTH CLOUDY 60 49 65 N15G22 30.07R ROCHESTER CLOUDY 59 46 62 N12G20 30.09R 6HR MIN TEMP: 58; 6HR MAX TEMP: 62; NASHUA CLOUDY 62 50 64 N8 30.07S MANCHESTER CLOUDY 62 48 60 N13 30.07R 6HR MIN TEMP: 61; 6HR MAX TEMP: 64; CONCORD CLOUDY 62 47 57 N8 30.11R 6HR MIN TEMP: 60; 6HR MAX TEMP: 63; LACONIA MOSUNNY 61 45 55 NE9 30.13R PLYMOUTH CLOUDY 48 47 98 CALM 30.15R FOG BERLIN FOG 43 41 93 CALM 30.21R VSB<1/4 6HR MIN TEMP: 42; 6HR MAX TEMP: 44; WHITEFIELD MOSUNNY 52 46 80 CALM 30.17R 6HR MIN TEMP: 42; 6HR MAX TEMP: 53; JAFFREY CLOUDY 60 48 64 VRB6 30.10R 6HR MIN TEMP: 58; 6HR MAX TEMP: 60; KEENE CLOUDY 62 49 62 N13 30.10R LEBANON FOG 51 51 100 NW3 30.15R VSB 1/4 6HR MIN TEMP: 50; 6HR MAX TEMP: 53; MT WASHINGTON NOT AVBL $$ VTZ005-007-008-221300- VERMONT CITY SKY/WX TMP DP RH WIND PRES REMARKS ST JOHNSBURY N/A 45 45 100 MISG 30.16R MONTPELIER FOG 47 47 100 CALM 30.21R VSB<1/4 BURLINGTON CLOUDY 56 51 84 NE5 30.15S $$ MAZ007-012-024-CTZ003-RIZ002-NYZ038-NYZ072-221300- SOUTHERN NEW ENGLAND AND NY CITY SKY/WX TMP DP RH WIND PRES REMARKS BOSTON CLOUDY 58 55 90 N22G29 30.01S WORCESTER CLOUDY 58 46 64 N18G29 30.03S NANTUCKET LGT RAIN 61 61 100 N36G48 29.77R FOG PROVIDENCE LGT RAIN 58 57 97 N24G33 29.96S FOG HARTFORD MOSUNNY 64 48 56 N14G22 30.02S ALBANY CLOUDY 58 53 84 N3 30.12R NEW YORK CITY PTSUNNY 68 51 54 N13G23 30.01R $$ ANZ081-ANZ082-ANZ150-NHZ014-MEZ023>029-221300- COASTAL MARINE OBSERVATIONS STATION/POSITION TIME TEMP WIND PRES WAVE AIR SEA DIR/SP/G HT/PER (UTC) (F) (DEG/KT/KT) (MB) (FT/S) MOUNT DESERT ROC 1200 55 20/ 29/ 33 1018.6S MATINICUS ROCK 1100 55 40/ 24/ 28 1018.0R ISLE OF SHOALS 1100 60 30/ 29/ 33 1016.6R JEFFREYS LEDGE 1136 62 N/A 12/11 GEORGES BANK BUO 1050 73 73 1006.9 14/10 $$ .............KEY.............. WCI - WIND CHILL TC - TEMPERATURE IN CELSIUS VSB - VISIBILITY IN MILES HX - HEAT INDEX FAIR- INDICATES FEW OR NO CLOUDS BELOW 12,000 FT, WITH NO SIGNIFICANT WEATHER AND/OR OBSTRUCTIONS TO VISIBILITY.

USA.gov is the U.S. government's official web portal to all federal, state and local government web resources and services.